timestamp,wind_dir_avg,wind_spd_avg,wind_spd_max_dir,wind_spd_gust,battery_voltage,lat,long
2023-05-11 00:04:00+00:00,240.0,7.21,238.0,7.95,12.89,47.59359,-54.27349
2023-05-11 00:14:01+00:00,248.0,6.59,244.0,7.37,12.41,47.59359,-54.27349
2023-05-11 00:24:01+00:00,245.0,7.2,244.0,8.33,12.41,47.59359,-54.27349
2023-05-11 00:34:01+00:00,241.0,6.89,244.0,8.12,12.41,47.59359,-54.27349
2023-05-11 00:44:01+00:00,233.0,5.83,233.0,6.68,12.41,47.59359,-54.27349
2023-05-11 00:54:01+00:00,232.0,6.51,226.0,7.75,12.41,47.59359,-54.27349
2023-05-11 01:04:01+00:00,229.0,6.45,232.0,7.83,12.41,47.59359,-54.27349
2023-05-11 01:14:00+00:00,224.0,6.09,224.0,7.19,12.33,47.59359,-54.27349
2023-05-11 01:24:00+00:00,225.0,5.67,219.0,6.43,12.33,47.59359,-54.27349
2023-05-11 01:34:00+00:00,228.0,5.54,232.0,6.47,12.33,47.59359,-54.27349
2023-05-11 01:44:00+00:00,234.0,5.1,234.0,6.15,12.33,47.59359,-54.27349
2023-05-11 01:54:00+00:00,243.0,7.32,242.0,8.32,12.33,47.59359,-54.27349
2023-05-11 02:04:00+00:00,238.0,7.79,238.0,8.68,12.33,47.59359,-54.27349
2023-05-11 02:14:00+00:00,239.0,8.27,240.0,8.87,12.33,47.59359,-54.27349
2023-05-11 02:24:00+00:00,236.0,7.67,238.0,8.61,12.33,47.59359,-54.27349
2023-05-11 02:34:00+00:00,237.0,7.56,240.0,8.23,12.33,47.59359,-54.27349
2023-05-11 02:44:00+00:00,243.0,7.42,244.0,8.3,12.33,47.59359,-54.27349
2023-05-11 02:54:00+00:00,248.0,7.28,248.0,8.38,12.33,47.59359,-54.27349
2023-05-11 03:04:00+00:00,254.0,7.28,249.0,7.89,12.33,47.59359,-54.27349
2023-05-11 03:14:01+00:00,260.0,7.26,262.0,7.93,12.33,47.59359,-54.27349
2023-05-11 03:24:01+00:00,263.0,7.11,267.0,8.25,12.33,47.59359,-54.27349
2023-05-11 03:34:01+00:00,270.0,7.09,266.0,8.01,12.33,47.59359,-54.27349
2023-05-11 03:44:01+00:00,263.0,7.19,263.0,8.9,12.33,47.59359,-54.27349
2023-05-11 03:54:01+00:00,265.0,5.05,254.0,6.34,12.33,47.59359,-54.27349
2023-05-11 04:04:01+00:00,245.0,4.74,248.0,5.86,12.33,47.59359,-54.27349
2023-05-11 04:14:00+00:00,228.0,5.49,226.0,6.25,12.25,47.59359,-54.27349
2023-05-11 04:24:00+00:00,236.0,4.59,242.0,6.14,12.25,47.59359,-54.27349
2023-05-11 04:34:00+00:00,234.0,3.66,219.0,4.43,12.25,47.59359,-54.27349
2023-05-11 04:44:00+00:00,249.0,4.28,251.0,5.06,12.25,47.59359,-54.27349
2023-05-11 04:54:00+00:00,240.0,4.4,243.0,5.85,12.25,47.59359,-54.27349
2023-05-11 05:04:00+00:00,264.0,3.29,262.0,4.04,12.25,47.59359,-54.27349
2023-05-11 05:14:00+00:00,263.0,3.15,267.0,3.75,12.25,47.59359,-54.27349
2023-05-11 05:24:00+00:00,284.0,4.28,283.0,5.75,12.25,47.59359,-54.27349
2023-05-11 05:34:00+00:00,286.0,4.97,279.0,8.8,12.25,47.59359,-54.27349
2023-05-11 05:44:00+00:00,287.0,5.36,280.0,9.21,12.25,47.59359,-54.27349
2023-05-11 05:54:00+00:00,285.0,5.52,280.0,9.25,12.25,47.59359,-54.27349
2023-05-11 06:04:00+00:00,288.0,4.29,292.0,4.92,12.25,47.59359,-54.27349
2023-05-11 06:14:01+00:00,289.0,4.69,285.0,5.58,12.17,47.59359,-54.27349
2023-05-11 06:24:01+00:00,281.0,4.61,278.0,8.33,12.17,47.59359,-54.27349
2023-05-11 06:34:01+00:00,275.0,5.33,271.0,9.14,12.17,47.59359,-54.27349
2023-05-11 06:44:01+00:00,276.0,8.93,274.0,9.88,12.17,47.59359,-54.27349
2023-05-11 06:54:01+00:00,273.0,9.23,274.0,9.83,12.17,47.59359,-54.27349
2023-05-11 07:04:01+00:00,275.0,9.71,276.0,10.33,12.17,47.59359,-54.27349
2023-05-11 07:14:01+00:00,276.0,9.08,278.0,9.89,12.17,47.59359,-54.27349
2023-05-11 07:24:01+00:00,274.0,9.22,275.0,9.92,12.17,47.59359,-54.27349
2023-05-11 07:34:01+00:00,277.0,4.65,272.0,7.3,12.17,47.59359,-54.27349
2023-05-11 07:44:01+00:00,270.0,8.93,273.0,9.62,12.17,47.59359,-54.27349
2023-05-11 07:54:01+00:00,268.0,9.94,271.0,10.38,12.17,47.59359,-54.27349
2023-05-11 08:04:01+00:00,266.0,9.19,264.0,10.07,12.17,47.59359,-54.27349
2023-05-11 08:14:01+00:00,259.0,8.12,259.0,9.61,12.17,47.59359,-54.27349
2023-05-11 08:24:01+00:00,258.0,6.19,265.0,9.45,12.17,47.59359,-54.27349
2023-05-11 08:34:01+00:00,257.0,5.81,260.0,9.22,12.17,47.59359,-54.27349
2023-05-11 08:44:01+00:00,263.0,9.16,265.0,10.4,12.17,47.59359,-54.27349
2023-05-11 08:54:01+00:00,262.0,7.76,260.0,9.65,12.17,47.59359,-54.27349
2023-05-11 09:04:01+00:00,262.0,9.53,265.0,10.03,12.17,47.59359,-54.27349
2023-05-11 09:14:00+00:00,248.0,7.41,254.0,9.9,12.49,47.59359,-54.27349
2023-05-11 09:24:00+00:00,249.0,8.46,249.0,10.16,12.49,47.59359,-54.27349
2023-05-11 09:34:00+00:00,251.0,9.45,255.0,10.6,12.49,47.59359,-54.27349
2023-05-11 09:44:00+00:00,252.0,10.06,257.0,11.01,12.49,47.59359,-54.27349
2023-05-11 09:54:00+00:00,241.0,7.87,246.0,10.29,12.49,47.59359,-54.27349
2023-05-11 10:04:00+00:00,236.0,6.9,239.0,10.23,12.49,47.59359,-54.27349
2023-05-11 10:14:00+00:00,246.0,10.68,245.0,11.36,13.37,47.59359,-54.27349
2023-05-11 10:24:00+00:00,243.0,9.5,250.0,11.27,13.37,47.59359,-54.27349
2023-05-11 10:34:00+00:00,241.0,9.46,248.0,11.29,13.37,47.59359,-54.27349
2023-05-11 10:44:00+00:00,246.0,9.28,249.0,11.27,13.37,47.59359,-54.27349
2023-05-11 10:54:00+00:00,248.0,10.8,240.0,11.64,13.37,47.59359,-54.27349
2023-05-11 11:04:00+00:00,254.0,9.37,256.0,10.79,13.37,47.59359,-54.27349
2023-05-11 11:14:01+00:00,256.0,9.83,256.0,10.47,13.6,47.59359,-54.27349
2023-05-11 11:24:01+00:00,243.0,7.66,250.0,9.37,13.6,47.59359,-54.27349
2023-05-11 11:34:01+00:00,236.0,6.63,243.0,7.98,13.6,47.59359,-54.27349
2023-05-11 11:44:01+00:00,229.0,5.77,226.0,6.86,13.6,47.59359,-54.27349
2023-05-11 11:54:01+00:00,221.0,5.07,226.0,6.56,13.6,47.59359,-54.27349
2023-05-11 12:04:01+00:00,214.0,5.6,217.0,6.39,13.6,47.59359,-54.27349
2023-05-11 12:14:01+00:00,226.0,5.79,219.0,7.1,14.24,47.59359,-54.27349
2023-05-11 12:24:01+00:00,238.0,6.56,244.0,7.24,14.24,47.59359,-54.27349
2023-05-11 12:34:01+00:00,237.0,7.09,237.0,8.21,14.24,47.59359,-54.27349
2023-05-11 12:44:01+00:00,243.0,8.12,240.0,9.07,14.24,47.59359,-54.27349
2023-05-11 12:54:01+00:00,246.0,9.09,246.0,9.97,14.24,47.59359,-54.27349
2023-05-11 13:04:01+00:00,244.0,8.89,246.0,9.75,14.24,47.59359,-54.27349
2023-05-11 13:14:00+00:00,252.0,8.61,248.0,10.14,14.4,47.59359,-54.27349
2023-05-11 13:24:00+00:00,251.0,8.72,252.0,9.32,14.4,47.59359,-54.27349
2023-05-11 13:34:00+00:00,251.0,8.2,250.0,10.01,14.4,47.59359,-54.27349
2023-05-11 13:44:00+00:00,245.0,5.43,243.0,6.22,14.4,47.59359,-54.27349
2023-05-11 13:54:00+00:00,234.0,6.98,236.0,7.76,14.4,47.59359,-54.27349
2023-05-11 14:04:00+00:00,233.0,7.27,237.0,8.48,14.4,47.59359,-54.27349
2023-05-11 14:14:00+00:00,231.0,7.06,232.0,8.05,13.6,47.59359,-54.27349
2023-05-11 14:24:00+00:00,234.0,7.11,234.0,7.98,13.6,47.59359,-54.27349
2023-05-11 14:34:00+00:00,218.0,7.51,226.0,9.35,13.6,47.59359,-54.27349
2023-05-11 14:44:00+00:00,210.0,8.29,208.0,9.68,13.6,47.59359,-54.27349
2023-05-11 14:54:00+00:00,208.0,8.71,208.0,10.04,13.6,47.59359,-54.27349
2023-05-11 15:04:00+00:00,208.0,9.29,208.0,10.39,13.6,47.59359,-54.27349
2023-05-11 15:14:00+00:00,210.0,9.29,221.0,11.18,13.6,47.59359,-54.27349
2023-05-11 15:24:00+00:00,210.0,9.07,207.0,10.01,13.6,47.59359,-54.27349
2023-05-11 15:34:00+00:00,207.0,7.64,205.0,8.76,13.6,47.59359,-54.27349
2023-05-11 15:44:00+00:00,208.0,9.28,208.0,10.7,13.6,47.59359,-54.27349
2023-05-11 15:54:00+00:00,208.0,8.85,211.0,9.72,13.6,47.59359,-54.27349
2023-05-11 16:04:00+00:00,211.0,10.52,211.0,11.69,13.6,47.59359,-54.27349
2023-05-11 16:14:00+00:00,209.0,9.51,208.0,10.92,13.6,47.59359,-54.27349
2023-05-11 16:24:00+00:00,206.0,10.5,207.0,11.45,13.6,47.59359,-54.27349
2023-05-11 16:34:00+00:00,209.0,10.1,213.0,11.23,13.6,47.59359,-54.27349
2023-05-11 16:44:00+00:00,209.0,10.36,214.0,11.94,13.6,47.59359,-54.27349
2023-05-11 16:54:00+00:00,209.0,9.95,210.0,11.65,13.6,47.59359,-54.27349
2023-05-11 17:04:00+00:00,210.0,11.29,211.0,12.56,13.6,47.59359,-54.27349
2023-05-11 17:14:00+00:00,210.0,10.56,211.0,12.07,14.4,47.59359,-54.27349
2023-05-11 17:24:00+00:00,214.0,11.23,213.0,12.92,14.4,47.59359,-54.27349
2023-05-11 17:34:00+00:00,207.0,10.86,211.0,12.18,14.4,47.59359,-54.27349
2023-05-11 17:44:00+00:00,209.0,11.06,208.0,12.22,14.4,47.59359,-54.27349
2023-05-11 17:54:00+00:00,209.0,10.12,212.0,11.14,14.4,47.59359,-54.27349
2023-05-11 18:04:00+00:00,212.0,9.9,209.0,10.79,14.4,47.59359,-54.27349
2023-05-11 18:14:00+00:00,213.0,8.87,213.0,10.15,14.0,47.59359,-54.27349
2023-05-11 18:24:00+00:00,211.0,10.42,206.0,11.39,14.0,47.59359,-54.27349
2023-05-11 18:34:00+00:00,218.0,8.6,224.0,10.8,14.0,47.59359,-54.27349
2023-05-11 18:44:00+00:00,217.0,8.74,224.0,9.81,14.0,47.59359,-54.27349
2023-05-11 18:54:00+00:00,213.0,9.44,216.0,11.6,14.0,47.59359,-54.27349
2023-05-11 19:04:00+00:00,211.0,9.84,210.0,10.9,14.0,47.59359,-54.27349
2023-05-11 19:14:00+00:00,214.0,8.5,214.0,9.36,13.6,47.59359,-54.27349
2023-05-11 19:24:00+00:00,217.0,8.19,222.0,9.22,13.6,47.59359,-54.27349
2023-05-11 19:34:00+00:00,225.0,7.27,226.0,8.4,13.6,47.59359,-54.27349
2023-05-11 19:44:00+00:00,222.0,7.05,220.0,7.74,13.6,47.59359,-54.27349
2023-05-11 19:54:00+00:00,215.0,7.19,214.0,8.4,13.6,47.59359,-54.27349
2023-05-11 20:04:00+00:00,218.0,4.83,226.0,5.73,13.6,47.59359,-54.27349
2023-05-11 20:14:00+00:00,228.0,5.14,229.0,6.11,13.76,47.59359,-54.27349
2023-05-11 20:24:00+00:00,228.0,4.65,233.0,5.82,13.76,47.59359,-54.27349
2023-05-11 20:34:00+00:00,230.0,5.33,228.0,5.87,13.76,47.59359,-54.27349
2023-05-11 20:44:00+00:00,232.0,5.58,231.0,6.39,13.76,47.59359,-54.27349
2023-05-11 20:54:00+00:00,264.0,7.18,269.0,7.93,13.76,47.59359,-54.27349
2023-05-11 21:04:00+00:00,261.0,7.55,265.0,10.77,13.76,47.59359,-54.27349
2023-05-11 21:14:00+00:00,248.0,5.99,245.0,7.08,13.6,47.59359,-54.27349
2023-05-11 21:24:00+00:00,240.0,7.18,255.0,12.63,13.6,47.59359,-54.27349
2023-05-11 21:34:00+00:00,236.0,5.67,237.0,6.37,13.6,47.59359,-54.27349
2023-05-11 21:44:00+00:00,228.0,5.46,229.0,6.42,13.6,47.59359,-54.27349
2023-05-11 21:54:00+00:00,224.0,6.0,227.0,6.61,13.6,47.59359,-54.27349
2023-05-11 22:04:00+00:00,230.0,6.54,241.0,8.69,13.6,47.59359,-54.27349
2023-05-11 22:14:00+00:00,233.0,7.48,235.0,8.59,13.37,47.59359,-54.27349
2023-05-11 22:24:00+00:00,232.0,8.13,232.0,9.5,13.37,47.59359,-54.27349
2023-05-11 22:34:00+00:00,226.0,7.2,231.0,9.37,13.37,47.59359,-54.27349
2023-05-11 22:44:00+00:00,239.0,8.29,238.0,9.01,13.37,47.59359,-54.27349
2023-05-11 22:54:00+00:00,236.0,8.81,241.0,9.82,13.37,47.59359,-54.27349
2023-05-11 23:04:00+00:00,237.0,9.62,243.0,12.0,13.37,47.59359,-54.27349
2023-05-11 23:14:00+00:00,248.0,13.77,249.0,14.98,12.81,47.59359,-54.27349
2023-05-11 23:24:00+00:00,253.0,14.0,255.0,15.34,12.81,47.59359,-54.27349
2023-05-11 23:34:00+00:00,258.0,13.61,256.0,14.83,12.81,47.59359,-54.27349
2023-05-11 23:44:00+00:00,262.0,13.89,264.0,16.97,12.81,47.59359,-54.27349
2023-05-11 23:54:00+00:00,255.0,9.3,257.0,13.33,12.81,47.59359,-54.27349
